Tracking 19796 objects as of 19-Jul-2019
HD Live streaming from Space Station
objects crossing your sky now

FENGYUN 1C DEB

Track FENGYUN 1C DEB now!
10-day predictions


NORAD ID: 32166
Int'l Code: 1999-025CTL
Perigee: 501.4 km
Apogee: 715.5 km
Inclination: 98.2 °
Period: 96.7 minutes
Semi major axis: 6979 km
RCS: 0.0014 m2 (small)
Launch date: May 10, 1999
Source: People's Republic of China (PRC)
Launch site: Taiyaun Space Center, China (TSC)

Note: This is SATELLITE DEBRIS
aabbcc
Your satellite tracking list
Your tracking list is empty




NASA's NSSDC Master Catalog

Two Line Element Set (TLE):
1 32166U 99025CTL 19198.57695349 +.00000497 +00000-0 +49109-4 0  9996
2 32166 098.2325 333.6887 0153351 313.6542 045.2042 14.88928658645538
Source of the keplerian elements: AFSPC